TimeCST,TemperatureF,Dew PointF,Humidity,Sea Level PressureIn,VisibilityMPH,Wind Direction,Wind SpeedMPH,Gust SpeedMPH,PrecipitationIn,Events,Conditions,WindDirDegrees,DateUTC
12:53 AM,43.0,28.9,58,30.09,10.0,SSW,3.5,-,N/A,,Partly Cloudy,210,2014-01-19 06:53:00
1:53 AM,43.0,34.0,71,30.09,10.0,SW,3.5,-,N/A,,Clear,230,2014-01-19 07:53:00
2:53 AM,46.0,39.9,79,30.11,10.0,NW,12.7,21.9,N/A,,Mostly Cloudy,320,2014-01-19 08:53:00
3:53 AM,45.0,42.1,90,30.12,10.0,West,4.6,-,N/A,,Clear,280,2014-01-19 09:53:00
4:53 AM,44.1,42.1,93,30.12,10.0,WNW,4.6,-,N/A,,Clear,290,2014-01-19 10:53:00
5:53 AM,44.1,42.1,93,30.14,10.0,WNW,4.6,-,N/A,,Clear,290,2014-01-19 11:53:00
6:53 AM,41.0,39.0,93,30.17,6.0,NW,4.6,-,N/A,,Clear,310,2014-01-19 12:53:00
7:11 AM,37.9,37.0,97,30.18,1.5,Calm,Calm,-,N/A,,Clear,0,2014-01-19 13:11:00
7:29 AM,37.9,36.0,93,30.19,4.0,Calm,Calm,-,N/A,,Clear,0,2014-01-19 13:29:00
7:47 AM,39.2,37.4,93,30.20,1.8,Calm,Calm,-,N/A,,Clear,0,2014-01-19 13:47:00
7:53 AM,41.0,37.9,89,30.21,1.8,Calm,Calm,-,N/A,,Clear,0,2014-01-19 13:53:00
7:56 AM,41.0,39.0,93,30.21,4.0,Calm,Calm,-,N/A,,Clear,0,2014-01-19 13:56:00
8:53 AM,48.9,37.0,64,30.22,10.0,North,12.7,-,N/A,,Clear,350,2014-01-19 14:53:00
9:53 AM,52.0,28.9,41,30.25,10.0,North,11.5,-,N/A,,Clear,360,2014-01-19 15:53:00
10:53 AM,54.0,28.9,38,30.24,10.0,Variable,4.6,-,N/A,,Clear,0,2014-01-19 16:53:00
11:53 AM,59.0,27.0,29,30.20,10.0,Variable,5.8,-,N/A,,Clear,0,2014-01-19 17:53:00
12:53 PM,59.0,26.1,28,30.17,10.0,WSW,8.1,-,N/A,,Clear,250,2014-01-19 18:53:00
1:53 PM,62.1,23.0,22,30.16,10.0,West,3.5,-,N/A,,Clear,270,2014-01-19 19:53:00
2:53 PM,63.0,23.0,22,30.14,10.0,NW,5.8,-,N/A,,Clear,320,2014-01-19 20:53:00
3:53 PM,63.0,24.1,23,30.15,10.0,NW,9.2,-,N/A,,Clear,310,2014-01-19 21:53:00
4:53 PM,61.0,25.0,25,30.14,10.0,Calm,Calm,-,N/A,,Clear,0,2014-01-19 22:53:00
5:53 PM,51.1,33.1,50,30.15,10.0,Calm,Calm,-,N/A,,Clear,0,2014-01-19 23:53:00
6:53 PM,46.0,32.0,58,30.16,10.0,Calm,Calm,-,N/A,,Clear,0,2014-01-20 00:53:00
7:53 PM,43.0,30.9,62,30.15,10.0,Calm,Calm,-,N/A,,Clear,0,2014-01-20 01:53:00
8:53 PM,39.0,30.9,73,30.17,10.0,Calm,Calm,-,N/A,,Clear,0,2014-01-20 02:53:00
9:53 PM,37.9,30.9,76,30.17,10.0,Calm,Calm,-,N/A,,Clear,0,2014-01-20 03:53:00
10:53 PM,37.0,30.9,79,30.16,10.0,Calm,Calm,-,N/A,,Clear,0,2014-01-20 04:53:00
11:53 PM,34.0,28.9,82,30.14,10.0,Calm,Calm,-,N/A,,Clear,0,2014-01-20 05:53:00